Home   Weather   Almere   Past weeks

Flag for Netherlands Past Weather in Almere, Netherlands — Yesterday and Last 2 Weeks

Now
25 °F

Snow flurries. Ice fog.


Feels Like: 20 °F
Forecast: 24 / 35 °F
Wind: 3 mph from South

Location: Amsterdam Schiphol Airport

Current Time: Jan 18, 2017 at 11:29:35 am

Latest Report: Jan 18, 2017 at 10:55 am


Visibility: 0 mi

Pressure: 30.72 "Hg

Humidity: 93%

Dew Point: 23 °F

Location of AlmereLocation

Past Weather in Almere — Graph

°F

Almere Temperature Yesterday

Maximum temperature yesterday: 32 °F (at 4:25 pm)
Minimum temperature yesterday: 21 °F (at 11:25 pm)
Average temperature yesterday: 26 °F

High & Low Weather Summary for the Past Weeks

 TemperatureHumidityPressure
High50 °F (Jan 11, 11:55 am)100% (Jan 7, 4:25 am)30.74 "Hg (Jan 7, 4:25 am)
Low21 °F (Jan 6, 8:25 am)56% (Jan 5, 2:25 pm)29.09 "Hg (Jan 12, 11:25 pm)
Average36 °F87%30.14 "Hg
* Reported Jan 3 10:25 am — Jan 18 10:25 am, Almere, Weather by CustomWeather, © 2017

Note: Actual official high and low records may vary slightly from our data, if they occured in-between our weather recording intervals... More about our weather records

Advertising

Almere Weather History for the Previous 24 Hours

Scroll right to see more
 ConditionsComfort  
Time TempWeatherWind HumidityBarometerVisibility
10:25 am
Wed, Jan 18
25 °FSnow flurries. Ice fog.5 mph93%30.72 "Hg1 mi
9:55 am23 °FSnow flurries. Ice fog.5 mph100%30.72 "Hg1 mi
9:25 am23 °FSnow flurries. Ice fog.5 mph100%30.72 "Hg1 mi
8:55 am23 °FSnow flurries. Ice fog.5 mph93%30.72 "Hg1 mi
8:25 am23 °FSnow flurries. Ice fog.3 mph93%30.72 "Hg1 mi
7:55 am23 °FSnow flurries. Ice fog.6 mph93%30.69 "Hg1 mi
7:25 am23 °FSnow flurries. Ice fog.3 mph93%30.69 "Hg1 mi
6:55 am23 °FSnow flurries. Ice fog.3 mph100%30.69 "Hg0 mi
6:25 am23 °FSnow flurries. Ice fog.5 mph93%30.69 "Hg1 mi
5:55 am23 °FIce fog.6 mph93%30.69 "Hg1 mi
5:25 am23 °FIce fog.3 mph100%30.69 "Hg0 mi
4:55 am23 °FIce fog.5 mph100%30.69 "Hg0 mi
4:25 am23 °FIce fog.5 mph100%30.69 "Hg1 mi
3:55 am23 °FIce fog.2 mph100%30.72 "Hg1 mi
3:25 am23 °FIce fog.3 mph100%30.72 "Hg1 mi
2:55 am23 °FIce fog.5 mph93%30.72 "Hg1 mi
2:25 am23 °FIce fog.3 mph93%30.72 "Hg1 mi
1:55 am23 °FIce fog.5 mph93%30.69 "Hg0 mi
1:25 am21 °FIce fog.5 mph100%30.69 "Hg0 mi
12:55 am23 °FCold.6 mph93%30.72 "Hg2 mi
12:25 am23 °FIce fog.3 mph100%30.72 "Hg2 mi
11:55 pm
Tue, Jan 17
21 °FIce fog.2 mph100%30.69 "Hg2 mi
11:25 pm21 °FIce fog.3 mph93%30.72 "Hg3 mi
10:55 pm23 °FIce fog.2 mph100%30.69 "Hg2 mi
10:25 pm25 °FClear.2 mph93%30.69 "Hg4 mi
9:55 pm25 °FClear.3 mph100%30.72 "Hg4 mi
9:25 pm25 °FClear.2 mph93%30.69 "Hg4 mi
8:55 pm27 °FClear.2 mph93%30.69 "Hg4 mi
8:25 pm25 °FClear.5 mph93%30.69 "Hg4 mi
7:55 pm25 °FClear.3 mph93%30.69 "Hg5 mi
7:25 pm25 °FClear.1 mph93%30.69 "Hg5 mi
6:55 pm27 °FClear.1 mph93%30.66 "Hg5 mi
6:25 pm25 °FClear.1 mph93%30.66 "Hg5 mi
5:55 pm28 °FClear.2 mph86%30.66 "Hg5 mi
5:25 pm28 °FClear.2 mph86%30.66 "Hg5 mi
4:55 pm30 °FClear.1 mph80%30.66 "Hg5 mi
4:25 pm32 °FClear.1 mph75%30.66 "Hg5 mi
3:55 pm30 °FClear.1 mph80%30.66 "Hg5 mi
3:25 pm30 °FClear.3 mph80%30.66 "Hg5 mi
2:55 pm30 °FClear.3 mph80%30.66 "Hg4 mi
2:25 pm30 °FClear.3 mph80%30.66 "Hg4 mi
1:55 pm28 °FPassing clouds.5 mph86%30.66 "Hg4 mi
1:25 pm28 °FScattered clouds.6 mph86%30.66 "Hg4 mi
12:55 pm28 °FScattered clouds.3 mph86%30.69 "Hg4 mi
12:25 pm28 °FIce fog.7 mph86%30.66 "Hg3 mi
11:55 am27 °FIce fog.8 mph93%30.66 "Hg3 mi
11:25 am27 °FIce fog.6 mph86%30.66 "Hg2 mi
Weather by CustomWeather, © 2017

See weather overviewHow to use our weather pages